Location: Vancouver
(49.2500°N, 123.1330°W)
Time: 22:22:23
(UTC-07:00)

Iridium 35 - Visible Passes

Search period start: 24 June 2017 00:00
Search period end: 04 July 2017 00:00
Orbit: 776 x 779 km, 86.4° (Epoch: 24 June)

Date Brightness Start Highest point End Pass type
(mag) Time Alt. Az. Time Alt. Az. Time Alt. Az.
24 Jun 7.6 02:35:03 10° E 02:37:22 13° ENE 02:39:40 10° NE visible
24 Jun 5.1 04:12:00 10° S 04:17:14 85° E 04:22:29 10° N visible
25 Jun 5.9 03:38:46 10° SSE 03:43:46 50° E 03:48:49 10° NNE visible
26 Jun 6.7 03:05:59 10° SE 03:10:26 30° E 03:14:55 10° NNE visible
27 Jun 7.4 02:33:48 10° ESE 02:37:14 18° ENE 02:40:39 10° NE visible
27 Jun 5.1 04:12:09 10° S 04:17:21 70° W 04:22:36 10° N visible
28 Jun 7.8 02:03:22 10° E 02:04:08 10° ENE 02:04:53 10° ENE visible
28 Jun 5.3 03:38:39 10° S 03:43:49 69° E 03:49:02 10° N visible
29 Jun 6.2 03:05:35 10° SSE 03:10:25 40° E 03:15:17 10° NNE visible
30 Jun 6.9 02:33:00 10° SE 02:37:08 24° E 02:41:16 10° NNE visible
30 Jun 5.4 04:12:28 10° SSW 04:17:31 51° W 04:22:38 10° N visible
01 Jul 7.4 02:01:12 10° ESE 02:03:58 15° ENE 02:06:44 10° NE visible
01 Jul 5.0 03:38:48 11° S 03:43:55 86° W 03:49:11 10° N visible
02 Jul 5.6 03:05:35 11° SSE 03:10:27 56° E 03:15:33 10° NNE visible
03 Jul 6.4 02:32:29 10° SE 02:37:06 33° E 02:41:43 10° NNE visible
03 Jul 5.8 04:12:56 10° SW 04:17:44 37° WNW 04:22:35 10° N visible
